Billings, MT

6:03 AM MDT on May 24, 2017 (GMT -0600)
Billings Logan International

Weather History for KBIL - August, 2012

Change the Weather History Date:

Saturday, August 11, 2012

  Actual Average Record
Temperature  
Mean Temperature 71 °F 73 °F  
Max Temperature 80 °F 87 °F 100 °F (1996)
Min Temperature 61 °F 59 °F 47 °F (1977)
Degree Days  
Heating Degree Days 0 0  
Month to date heating degree days 1 0  
Since 1 June heating degree days 36 111  
Since 1 July heating degree days 1 15  
Cooling Degree Days 6 8  
Month to date cooling degree days 124 98  
Year to date cooling degree days 730 456  
Since 1 June cooling degree days 696 439  
Growing Degree Days 20 (Base 50)    
Moisture  
Dew Point 52 °F    
Average Humidity 53    
Maximum Humidity 88    
Minimum Humidity 22    
Precipitation  
Precipitation 0.10 in 0.02 in 0.51 in (1951)
Month to date precipitation 0.12 0.30  
Year to date precipitation 4.90 9.60  
Snow  
Snow 0.00 in 0.00 in 0.00 in (2002)
Month to date snowfall 0.0 0.0  
Since 1 June snowfall T 0.0  
Since 1 July snowfall 0.0 0.0  
Snow Depth 0.00 in    
Sea Level Pressure  
Sea Level Pressure 29.97 in    
Wind  
Wind Speed 9 mph (WSW)    
Max Wind Speed 26 mph    
Max Gust Speed 32 mph    
Visibility 10 miles    
Events Rain , Thunderstorm    
T = Trace of Precipitation, MM = Missing Value Source: NWS Daily Summary

Daily Weather History Graph

Daily Weather History Graph

Search for Another Location

Airport or City:

Trip Planner

Search our weather history database for the weather conditions in past years. The results will help you decide how hot, cold, wet, or windy it might be!

Date:

Astronomy

Aug. 11, 2012 Rise Set
Actual Time 6:09 AM MDT 8:27 PM MDT
Civil Twilight 5:36 AM MDT 9:00 PM MDT
Nautical Twilight 4:55 AM MDT 9:41 PM MDT
Astronomical Twilight 4:09 AM MDT 10:27 PM MDT
Moon 12:35 AM MDT (8/11) 4:11 PM MDT (8/11)
Length of Visible Light 15h 23m
Length of Day
14h 17m
Waning Crescent, 32% of the Moon is Illuminated
Aug 11
Waning Crescent
Aug 17
New
Aug 24
First Quarter
Aug 31
Full
Sep 8
Last Quarter

Hourly Weather History & Observations

Time (MDT) Temp. Dew Point Humidity Pressure Visibility Wind Dir Wind Speed Gust Speed Precip Events Conditions
12:53 AM 66.9 °F 53.1 °F 61% 29.85 in 10.0 mi West 9.2 mph - N/A   Overcast
1:53 AM 69.1 °F 52.0 °F 54% 29.85 in 10.0 mi West 6.9 mph - N/A   Mostly Cloudy
2:53 AM 69.1 °F 52.0 °F 54% 29.85 in 10.0 mi SSW 5.8 mph - N/A   Mostly Cloudy
3:53 AM 66.0 °F 53.1 °F 63% 29.88 in 10.0 mi WSW 9.2 mph - N/A   Overcast
4:53 AM 64.9 °F 54.0 °F 68% 29.88 in 10.0 mi SSW 10.4 mph - 0.00 in Rain Light Rain
5:53 AM 66.9 °F 52.0 °F 59% 29.91 in 10.0 mi WSW 12.7 mph 21.9 mph 0.01 in   Mostly Cloudy
6:53 AM 66.0 °F 52.0 °F 60% 29.91 in 10.0 mi WNW 19.6 mph 32.2 mph N/A   Overcast
7:16 AM 66.2 °F 51.8 °F 60% 30.03 in 10.0 mi NW 15.0 mph - N/A Thunderstorm Thunderstorm
7:53 AM 61.0 °F 55.0 °F 81% 29.96 in 10.0 mi NW 10.4 mph 17.3 mph 0.09 in Rain , Thunderstorm Light Thunderstorms and Rain
8:37 AM 60.8 °F 57.2 °F 88% 30.03 in 10.0 mi NNW 13.8 mph - 0.00 in   Scattered Clouds
8:53 AM 62.1 °F 57.0 °F 84% 29.95 in 10.0 mi NNW 9.2 mph - 0.00 in   Scattered Clouds
9:53 AM 64.0 °F 55.9 °F 75% 29.99 in 10.0 mi NNW 10.4 mph - N/A   Mostly Cloudy
10:53 AM 64.0 °F 55.0 °F 73% 30.02 in 10.0 mi NW 9.2 mph - 0.00 in   Mostly Cloudy
11:53 AM 68.0 °F 54.0 °F 61% 30.02 in 10.0 mi North 12.7 mph - N/A   Mostly Cloudy
12:53 PM 68.0 °F 51.1 °F 55% 30.03 in 10.0 mi North 4.6 mph - N/A   Scattered Clouds
1:53 PM 68.0 °F 55.9 °F 65% 30.03 in 10.0 mi SSW 6.9 mph - N/A   Mostly Cloudy
2:53 PM 73.9 °F 52.0 °F 46% 30.02 in 10.0 mi South 6.9 mph - N/A   Partly Cloudy
3:53 PM 75.9 °F 50.0 °F 40% 30.00 in 10.0 mi South 6.9 mph - N/A   Partly Cloudy
4:53 PM 78.1 °F 46.9 °F 33% 29.99 in 10.0 mi South 11.5 mph - N/A   Partly Cloudy
5:53 PM 80.1 °F 48.0 °F 32% 29.97 in 10.0 mi SSW 8.1 mph - N/A   Partly Cloudy
6:53 PM 79.0 °F 48.0 °F 34% 29.96 in 10.0 mi South 6.9 mph - N/A   Partly Cloudy
7:53 PM 77.0 °F 48.9 °F 37% 29.99 in 10.0 mi WSW 6.9 mph - N/A   Partly Cloudy
8:53 PM 75.0 °F 48.0 °F 38% 30.00 in 10.0 mi WSW 6.9 mph - N/A   Partly Cloudy
9:53 PM 73.9 °F 48.0 °F 40% 30.01 in 10.0 mi SW 5.8 mph - N/A   Partly Cloudy
10:53 PM 71.1 °F 48.9 °F 45% 30.02 in 10.0 mi SSW 5.8 mph - N/A   Clear
11:53 PM 69.1 °F 51.1 °F 53% 30.02 in 10.0 mi SW 8.1 mph - N/A   Clear